Location: ??????????
(48.4699°N, 37.9573°E)
Time: 21:10:47
(UTC+00:00)

USA 229 - Pass Details

Date: 20 January 2021
Orbit: 964 x 1248 km, 63.4° (Epoch: 26 February)

Event Time Altitude Azimuth Distance (km) Brightness Sun altitude
Rises 16:01:58 0° 316° (NW) 3,902 7.1 -18.5°
Reaches altitude 10° 16:04:42 10° 323° (NW) 2,985 6.4 -18.9°
Maximum altitude 16:11:35 47° 36° (NE) 1,503 4.2 -20.1°
Enters shadow 16:14:27 33° 86° (E) 1,874 4.4 -20.5°
